Location: Essen
(51.4609°N, 7.0127°E)
Time: 18:18:17
(UTC+01:00)

ISS - Pass Details

Date: 11 November 2017
Orbit: 401 x 407 km, 51.6° (Epoch: 18 November)

Event Time Altitude Azimuth Distance (km) Brightness Sun altitude
Exits shadow 06:42:56 14° 275° (W) 1,257 -2.0 -9.5°
Maximum altitude 06:45:34 47° 203° (SSW) 542 -3.3 -9.1°
Drops below altitude 10° 06:48:43 10° 128° (SE) 1,453 0.3 -8.6°
Sets 06:50:49 0° 123° (ESE) 2,310 1.8 -8.3°
